Find Starlink 5010

NORAD ID: 53930 Int'l Des: 2022-119 Owner: SPXS Country: US Constellation: starlink operational
LEOCIRCULAR

リアルタイム位置

3D地球を読み込み中...

Starlink 5010について

説明を読み込み中...

次回通過

Passes for default location (London). Set your location on the main map for personalized predictions.

高度履歴

Loading altitude history...

軌道要素

1 53930U 22119AW 26104.91668981 .00082370 00000-0 24383-2 0 9998
2 53930 53.2177 138.3656 0001167 77.0227 116.9088 15.34194128 5780
Epoch: Apr 14, 2026 • Age: 8 hours

現在のステータス

高度 463.5 km
速度 7.64 km/s
衛星直下点 6.34°N, 22.88°E
打ち上げ日 Sep 24, 2022
運用期間 3.5 years
タイプ internet

技術仕様

分類 Payload
質量 305.00 kg
乾燥質量 290.00 kg
総質量 305.00 kg
長さ 0.20 m
直径 2.80 m
スパン 9.00 m
形状 Box + pan
製造者 SPXS
バスタイプ Starlink
フェーズステータス In Orbit
所有者/国 SPXS/US

Most Searched